Weather History for Chamberlain, SD

Change the Weather History Date:

Wednesday, April 3, 2013

  Actual Average Record
Temperature  
Mean Temperature 48 °F -  
Max Temperature 70 °F 49 °F 75 °F (2005)
Min Temperature 26 °F 28 °F 16 °F (2002)
Degree Days  
Heating Degree Days 17    
Moisture  
Dew Point 26 °F    
Average Humidity 47    
Maximum Humidity 84    
Minimum Humidity 20    
Precipitation  
Precipitation 0.00 in - - ()
Sea Level Pressure  
Sea Level Pressure 30.08 in    
Wind  
Wind Speed 15 mph (South)    
Max Wind Speed 25 mph    
Max Gust Speed 37 mph    
Averages and records for this station are not official NWS values.
T = Trace of Precipitation, MM = Missing Value Source: NWS Daily Summary

Daily Weather History Graph

Daily Weather History Graph

Search for Another Location

Airport:

Trip Planner

Search our weather history database for the weather conditions in past years. The results will help you decide how hot, cold, wet, or windy it might be!

Date:

Astronomy

Apr. 03, 2013 Rise Set
Actual Time 7:14 AM CDT 8:06 PM CDT
Civil Twilight 6:45 AM CDT 8:36 PM CDT
Nautical Twilight 6:10 AM CDT 9:10 PM CDT
Astronomical Twilight 5:34 AM CDT 9:47 PM CDT
Moon 3:09 AM CDT (4/3) 1:08 PM CDT (4/3)
Length of Visible Light 13h 50m
Length of Day
12h 52m
Last Quarter, 44% of the Moon is Illuminated
Apr 3
Last Quarter
Apr 10
New
Apr 18
First Quarter
Apr 25
Full
May 2
Last Quarter

Hourly Weather History & Observations

Time (CDT) Temp. Windchill Dew Point Humidity Pressure Visibility Wind Dir Wind Speed Gust Speed Precip Events Conditions
12:52 AM 33.1 °F 23.9 °F 21.9 °F 64% 30.23 in - ESE 12.7 mph - N/A   Unknown
1:52 AM 30.9 °F 20.7 °F 21.9 °F 69% 30.22 in - ESE 13.8 mph - N/A   Unknown
2:52 AM 30.0 °F 19.1 °F 21.9 °F 72% 30.21 in - ESE 15.0 mph - N/A   Unknown
3:52 AM 32.0 °F 21.2 °F 23.0 °F 69% 30.19 in - ESE 16.1 mph - N/A   Unknown
4:52 AM 28.9 °F 19.2 °F 21.9 °F 75% 30.19 in - ESE 11.5 mph - N/A   Unknown
5:52 AM 27.0 °F 18.0 °F 21.9 °F 81% 30.18 in - ESE 9.2 mph - N/A   Unknown
6:52 AM 26.1 °F 16.8 °F 21.0 °F 81% 30.18 in - SE 9.2 mph - N/A   Unknown
7:52 AM 26.1 °F 18.4 °F 21.9 °F 84% 30.19 in - ESE 6.9 mph - N/A   Unknown
8:52 AM 32.0 °F 25.6 °F 24.1 °F 73% 30.17 in - SE 6.9 mph - N/A   Unknown
9:52 AM 41.0 °F 35.8 °F 28.0 °F 60% 30.14 in - South 8.1 mph - N/A   Unknown
10:52 AM 51.1 °F - 32.0 °F 48% 30.11 in - SSW 11.5 mph - N/A   Unknown
11:52 AM 60.1 °F - 34.0 °F 38% 30.08 in - SSW 9.2 mph - N/A   Unknown
12:52 PM 66.0 °F - 28.9 °F 25% 30.05 in - WSW 24.2 mph 28.8 mph N/A   Unknown
1:52 PM 68.0 °F - 28.0 °F 22% 30.02 in - SW 20.7 mph 32.2 mph N/A   Unknown
2:52 PM 69.1 °F - 26.1 °F 20% 29.99 in - SW 25.3 mph 33.4 mph N/A   Unknown
3:52 PM 69.1 °F - 26.1 °F 20% 29.98 in - SW 23.0 mph 36.8 mph N/A   Unknown
4:52 PM 69.1 °F - 28.0 °F 22% 29.97 in - SW 24.2 mph 33.4 mph N/A   Unknown
5:52 PM 70.0 °F - 28.0 °F 21% 29.96 in - SSW 21.9 mph 32.2 mph N/A   Unknown
6:52 PM 68.0 °F - 28.0 °F 22% 29.96 in - SSW 18.4 mph 27.6 mph N/A   Unknown
7:52 PM 62.1 °F - 27.0 °F 26% 29.96 in - SSW 17.3 mph - N/A   Unknown
8:52 PM 57.9 °F - 26.1 °F 30% 29.96 in - South 17.3 mph - N/A   Unknown
9:52 PM 55.9 °F - 25.0 °F 30% 29.97 in - SSW 17.3 mph - N/A   Unknown
10:52 PM 55.0 °F - 25.0 °F 31% 29.98 in - SSW 19.6 mph 28.8 mph N/A   Unknown
11:52 PM 53.1 °F - 26.1 °F 35% 29.98 in - SW 20.7 mph - N/A   Unknown